Terminal Aerodrome Forecast
Issued by NWS Wichita, KS

Home | Current Version | Previous Version | Text Only | Print | Product List | Glossary On
Versions: 1 2 3 4 5 6 7 8 9 10 11 12 13 14 15 16 17 18
280
FTUS43 KICT 231334 AAC
TAFICT
TAF AMD
KICT 231334Z 2314/2412 34012KT P6SM FEW015 SCT040 BKN100
     FM231500 33014G20KT P6SM FEW030 SCT090
     FM231800 33016G23KT P6SM VCSH SCT040 BKN100
      TEMPO 2319/2323 BKN040
     FM240100 34010KT P6SM BKN070=

USA.gov is the U.S. government's official web portal to all federal, state and local government web resources and services.